Theta_e
322 326 327 329 327 314 308 313 314 316 316 312 313 314 314 314 312 310 310 312 312 311 314 313 311 311 309 307 306 303 302 302 300 299 299 298 299 300 301 300 299 299 297 296 295 294 294 293 293 292 292 292 292 292 292 292 293 293 293 293 293 292 292 292 292 292 292 291 291 291 291 291 291 292 291 291 291 291 291 292 293 294 296 296 296 297
327 324 327 331 320 309 309 311 312 313 311 311 313 313 314 314 312 310 311 312 310 310 314 313 310 311 309 307 305 303 302 301 300 299 298 298 299 300 300 300 299 298 297 296 295 294 294 293 292 292 292 292 292 292 292 292 292 292 293 293 292 292 292 292 292 291 291 291 290 290 290 290 291 291 291 290 290 290 290 291 292 294 295 296 296 297
325 323 324 323 314 309 311 311 311 312 311 313 314 313 315 315 314 314 313 311 309 309 314 313 309 308 308 308 306 302 301 301 300 299 298 298 299 300 300 300 299 298 297 297 296 294 293 293 292 292 292 292 292 292 292 292 292 292 292 292 292 292 292 292 291 291 291 290 290 289 290 290 290 289 289 288 288 288 289 289 291 292 294 294 295 296
322 327 321 315 312 310 310 312 313 311 312 315 314 314 315 315 316 317 315 312 310 309 312 311 308 307 307 308 306 302 301 301 300 300 299 299 299 299 300 300 299 297 296 297 297 294 293 293 292 292 292 292 292 292 292 292 292 292 292 292 291 291 291 291 291 290 290 289 289 289 288 288 287 287 287 286 287 288 289 289 290 291 292 293 294 295
318 320 316 313 314 312 311 315 315 313 316 320 318 316 316 316 316 317 315 312 311 312 312 309 308 309 308 307 305 301 300 300 300 300 300 300 300 300 300 299 299 299 295 295 297 295 292 292 292 292 292 292 292 292 292 292 292 292 291 291 291 291 291 290 290 289 289 288 288 287 287 286 285 285 285 286 287 287 287 288 289 290 291 292 293 294
314 313 313 315 316 316 317 319 320 317 316 320 322 318 316 315 314 317 317 313 312 314 313 309 309 312 310 307 304 301 299 299 298 298 298 299 299 300 299 298 299 298 296 295 296 294 292 292 292 292 292 291 292 292 292 292 292 291 291 291 291 291 290 289 289 288 288 287 287 286 285 285 285 285 285 285 286 285 285 285 286 288 289 291 292 293
312 311 314 317 319 318 317 320 323 318 313 316 319 316 315 312 312 314 314 312 313 314 312 310 310 310 309 308 304 300 299 299 298 297 297 298 298 298 298 298 298 296 296 296 295 293 292 292 291 291 291 292 292 292 292 291 291 291 291 291 291 290 289 289 288 288 287 286 286 285 284 284 284 284 285 284 284 284 284 284 285 286 288 289 291 292
312 311 315 316 317 317 315 317 319 318 317 318 315 311 310 310 311 313 311 311 312 311 309 309 309 307 307 308 304 300 300 299 298 297 297 297 297 297 297 297 297 296 295 295 296 294 292 291 291 291 291 292 292 291 291 291 291 291 291 290 290 289 288 288 287 287 286 285 285 284 284 283 283 283 283 283 283 283 283 284 285 286 286 287 289 291
312 313 317 317 315 317 317 317 318 317 316 317 313 308 308 310 311 311 311 310 309 308 308 309 309 308 310 310 304 300 300 300 298 297 296 296 296 296 296 297 295 295 295 295 295 294 291 291 291 291 291 292 291 291 291 291 291 291 290 290 289 288 288 287 287 286 285 285 284 283 283 283 282 282 282 282 283 283 283 283 284 284 285 286 287 289
312 312 317 318 315 316 319 318 317 316 313 313 311 309 310 312 311 309 309 309 307 308 309 309 309 308 311 311 305 302 302 301 299 297 296 296 295 295 296 296 295 294 295 296 294 292 291 291 291 291 292 291 291 291 290 291 291 290 290 289 288 288 287 286 286 285 284 284 283 283 282 282 282 281 281 281 281 282 282 283 283 283 283 285 286 288
311 309 311 312 312 315 317 313 313 314 311 309 309 311 313 313 311 309 309 308 308 312 311 309 310 308 308 310 306 303 305 304 300 296 296 295 294 295 295 295 295 295 295 296 294 291 291 291 291 291 291 291 291 290 290 291 290 290 289 288 288 287 287 286 285 284 284 283 283 282 282 281 281 280 280 280 280 281 282 282 282 282 282 283 284 286
312 310 311 310 310 313 312 309 311 313 311 309 311 311 313 316 315 311 311 310 311 316 313 307 308 306 307 309 306 304 305 304 300 296 295 294 293 295 296 295 295 296 296 295 295 292 290 290 290 291 291 290 290 290 290 290 290 289 289 288 287 287 286 285 284 284 283 283 282 282 281 281 280 280 279 279 280 280 281 281 281 281 281 281 282 283
317 316 313 309 309 311 311 310 312 312 310 311 312 309 310 317 319 316 315 312 311 316 310 303 305 304 304 306 307 307 304 301 300 297 295 294 293 295 296 296 296 296 296 295 294 294 291 289 289 290 290 290 290 290 290 290 289 289 288 287 287 286 285 285 284 283 283 282 282 281 281 280 279 279 279 279 279 279 280 280 280 280 280 280 281 282
322 321 312 308 311 311 311 312 315 315 311 310 312 312 312 315 316 316 317 315 315 317 309 301 303 305 305 305 305 305 301 297 297 296 294 293 294 296 295 296 296 296 296 295 294 294 293 290 289 290 290 289 289 290 290 290 289 288 288 287 286 285 285 284 283 283 282 282 281 281 280 280 279 278 278 278 278 278 278 279 279 278 279 279 280 281
319 324 319 314 313 311 310 313 320 320 313 311 312 313 314 314 316 318 317 317 316 316 310 303 304 308 308 304 300 298 296 295 295 294 294 295 295 296 295 295 296 295 295 295 293 294 292 290 290 290 289 289 289 290 290 289 288 288 287 286 286 285 284 284 283 282 282 281 281 280 280 279 279 278 278 277 277 277 277 277 277 277 278 278 279 280
315 323 319 309 307 309 310 311 313 314 313 311 308 308 310 312 313 313 312 312 310 308 307 304 306 309 304 298 295 295 294 294 294 294 294 295 295 295 295 295 295 294 294 294 294 295 292 290 290 290 289 289 289 289 289 289 288 287 287 286 285 284 284 283 283 282 281 281 280 280 279 279 278 278 277 277 277 276 276 276 276 277 277 277 278 279
316 321 313 305 305 307 307 306 305 310 314 309 305 308 311 309 307 307 308 309 307 306 306 305 307 307 303 298 294 294 294 293 294 294 293 294 295 295 295 295 294 293 293 293 294 294 291 289 289 289 289 289 289 289 289 288 287 287 286 285 285 284 283 283 282 281 281 280 280 280 279 279 278 277 277 276 276 276 276 276 276 276 276 276 277 278
318 318 312 308 310 305 302 303 303 305 308 307 307 311 310 306 304 306 308 307 305 306 307 306 305 304 305 302 295 293 295 294 293 293 293 294 295 295 295 294 293 292 293 294 294 292 290 288 289 289 289 289 289 289 288 287 287 286 285 285 284 283 283 282 282 281 280 279 279 279 279 278 278 277 277 276 276 275 275 275 275 275 275 276 276 277
316 317 313 307 308 304 301 305 306 303 303 306 308 307 306 308 307 305 306 307 307 308 309 308 305 303 304 303 296 294 294 294 293 293 293 294 294 295 295 294 293 293 294 295 294 293 290 288 288 289 288 289 289 288 287 287 286 286 285 284 283 283 282 282 281 280 279 279 279 278 278 278 277 277 276 276 275 275 275 275 275 275 275 275 276 276
313 317 316 305 303 304 302 305 310 306 301 301 303 302 302 305 306 304 304 306 308 309 309 309 308 306 305 303 299 295 294 294 293 293 294 294 294 295 295 295 295 295 295 294 294 294 290 287 288 289 288 289 288 287 287 286 285 285 284 283 283 282 282 281 280 279 278 278 278 278 277 277 277 276 276 275 275 275 275 274 274 274 274 275 275 276
310 315 317 306 301 305 305 305 309 309 304 301 301 301 300 300 303 305 303 302 304 306 307 307 307 307 305 302 300 297 295 293 293 294 295 295 294 294 295 295 295 294 294 293 293 293 290 287 288 289 288 288 287 286 286 285 285 284 283 283 282 281 281 280 279 278 278 277 277 277 277 277 276 276 276 275 275 274 274 274 274 274 274 274 275 275
312 313 313 309 305 307 308 307 306 307 307 304 302 302 301 300 303 305 303 302 302 303 305 305 306 308 304 299 298 297 295 294 295 295 296 295 294 294 294 295 294 293 293 292 292 292 288 286 287 288 287 287 286 285 285 284 284 283 282 282 281 280 280 279 278 278 277 277 277 277 276 276 276 276 275 275 275 274 274 274 274 274 274 274 274 275
313 311 309 309 309 308 307 304 304 304 303 303 303 303 303 301 302 304 306 305 302 300 300 301 302 304 301 297 297 296 295 295 296 296 296 295 294 294 294 294 293 292 292 291 291 290 287 286 287 287 286 286 285 285 284 283 283 282 281 281 280 279 279 278 277 277 276 276 276 276 276 276 275 275 275 275 274 274 274 274 274 274 274 274 274 274
309 310 309 309 311 311 304 298 299 300 299 300 301 301 301 301 302 303 304 305 304 301 299 299 300 301 299 298 298 296 295 296 296 296 295 294 294 294 294 293 292 291 291 291 291 288 286 286 287 286 285 285 284 284 283 282 282 281 280 279 279 278 278 277 276 276 276 275 275 275 275 275 275 275 275 274 274 274 274 274 273 273 273 273 274 274
310 311 312 311 313 314 307 301 300 299 297 297 299 299 299 299 300 301 300 301 302 301 300 300 302 302 299 298 298 297 296 296 295 295 295 295 295 294 293 293 292 291 290 290 290 288 287 287 286 285 284 284 283 283 282 281 281 280 279 278 278 277 277 276 276 275 275 274 274 275 274 274 274 274 274 274 273 273 273 273 273 273 273 273 273 273
311 312 311 312 315 316 314 311 310 305 298 296 297 298 299 298 298 299 299 300 300 299 300 300 301 301 298 297 298 297 297 297 295 294 294 294 294 293 293 293 292 291 290 289 289 288 288 287 285 284 284 283 282 282 281 280 280 279 278 277 277 276 276 275 275 274 274 273 273 274 274 274 274 273 273 273 273 273 273 273 273 273 273 273 273 273
311 310 308 310 314 314 314 313 309 305 301 300 299 297 297 298 299 299 299 300 300 300 300 300 300 300 299 298 298 296 296 296 295 294 294 293 293 293 292 292 291 290 289 289 288 288 287 286 285 283 283 282 282 281 280 279 278 278 277 276 276 275 275 274 274 273 273 273 273 273 273 273 273 273 273 273 272 272 272 272 272 272 272 272 273 273
310 309 306 307 310 310 312 312 307 303 303 304 303 299 297 298 299 300 300 299 300 301 301 301 301 301 301 299 298 297 296 296 296 295 294 294 293 292 292 291 291 290 290 289 288 288 287 286 284 283 282 282 281 280 279 278 277 277 276 275 275 274 274 273 273 272 272 272 272 272 272 272 272 272 272 272 272 272 272 272 272 272 272 272 272 272
308 308 307 307 307 306 308 308 307 305 304 304 304 301 298 297 298 299 299 298 299 300 301 302 301 301 301 299 298 298 297 297 296 296 295 294 293 292 292 291 291 290 290 289 288 287 286 285 284 282 281 281 280 279 278 277 276 276 275 274 274 273 273 272 271 271 271 271 271 272 272 272 272 272 272 272 272 271 271 271 271 271 271 271 271 271
306 306 305 306 307 306 306 306 305 305 304 304 303 302 299 297 297 298 297 297 298 298 298 299 299 299 299 298 298 297 298 298 297 296 295 294 293 293 292 291 291 290 289 288 287 286 285 284 283 281 280 280 279 278 277 276 275 275 274 273 273 272 271 271 270 270 270 270 271 271 271 271 271 271 271 271 271 271 270 270 270 270 270 270 270 271
304 305 306 306 306 306 305 305 304 303 303 303 302 301 300 299 298 297 297 296 297 297 297 297 297 297 297 298 297 297 297 298 296 295 294 293 293 293 292 291 290 290 289 287 286 285 284 283 282 280 279 279 278 277 276 275 274 273 273 272 272 271 270 270 269 269 269 270 270 271 271 271 271 271 270 270 270 270 269 269 269 269 269 269 270 270
303 304 305 304 306 308 306 303 302 301 300 300 300 300 299 299 299 298 297 297 296 297 297 297 297 297 297 298 298 297 298 297 296 295 294 293 293 293 292 291 290 289 287 286 285 284 283 282 281 280 278 277 276 276 275 274 273 272 272 271 270 270 269 268 268 269 269 270 270 270 270 270 270 270 270 269 269 268 268 268 268 268 269 269 269 270
302 304 305 304 307 307 302 299 299 298 301 304 303 301 299 298 298 298 298 298 297 297 297 297 298 297 297 298 298 297 297 297 295 295 293 292 293 292 291 291 289 287 286 285 285 284 282 281 280 279 277 276 276 275 274 273 272 271 270 270 269 268 268 268 268 268 269 269 270 270 270 270 269 269 268 268 267 267 267 267 268 268 268 269 269 269
301 303 303 304 307 304 298 297 298 301 307 309 304 302 301 299 298 298 298 298 298 297 297 297 298 297 297 298 298 297 296 295 295 294 293 292 293 292 291 290 288 287 286 285 284 283 281 280 278 277 276 275 275 274 273 272 271 270 269 268 268 267 267 267 268 268 269 269 269 269 269 269 268 267 267 267 266 266 267 267 267 268 268 268 269 269
301 302 302 303 304 300 296 298 302 306 309 305 299 299 300 299 299 299 298 298 298 298 297 297 297 297 297 297 297 297 296 294 293 293 293 292 292 292 290 289 287 286 285 284 283 281 280 278 277 276 275 274 273 272 271 270 269 269 268 267 267 267 267 267 267 268 268 269 268 268 268 267 267 266 266 266 266 266 266 267 267 267 267 268 269 269
302 301 302 301 301 300 298 300 305 308 305 302 300 297 297 297 297 297 298 298 297 297 297 297 297 297 297 297 296 295 294 293 292 292 292 291 291 290 289 288 286 286 285 283 281 280 278 277 276 275 274 273 272 271 270 269 268 267 267 266 266 266 266 267 267 268 268 268 267 267 266 266 265 265 265 265 265 265 265 266 266 267 267 268 268 269
303 302 302 302 302 303 301 301 304 305 303 304 303 297 295 296 296 297 299 299 298 297 296 296 297 296 296 296 294 292 291 292 292 291 289 289 289 288 287 287 285 284 283 281 279 278 277 275 275 273 272 272 270 269 269 268 267 266 266 266 266 266 266 267 267 267 267 266 266 265 265 264 264 264 264 264 264 265 265 266 266 266 267 268 268 269
302 302 302 303 304 303 302 302 303 304 305 305 301 297 295 296 296 296 298 298 298 298 296 295 296 295 295 294 291 291 292 292 293 291 287 286 287 286 286 285 283 281 280 278 277 276 275 274 273 272 271 270 269 268 268 267 266 265 265 265 265 265 266 266 266 266 265 265 264 264 263 263 263 263 263 264 264 265 265 266 266 267 267 268 268 269
300 300 301 303 304 302 302 304 303 305 306 302 298 296 295 296 296 298 300 299 297 297 296 295 295 295 295 292 290 291 292 292 294 292 287 286 287 286 285 284 281 279 278 277 276 275 274 273 272 271 270 269 268 267 266 266 265 265 265 265 265 265 265 266 265 265 264 263 263 263 262 262 262 262 263 263 264 264 265 266 267 267 267 268 268 269
299 300 299 301 303 302 301 302 302 303 303 299 295 294 293 294 297 301 304 303 297 293 294 295 295 294 293 291 290 292 293 293 294 293 287 285 286 284 283 283 280 278 277 276 275 274 273 271 270 269 269 268 267 266 265 265 264 264 264 264 264 265 265 265 264 263 262 262 262 261 261 262 262 262 263 264 264 265 266 266 267 267 268 269 269 270
298 299 299 299 301 301 301 302 301 302 301 296 293 292 292 295 299 301 304 303 296 293 293 294 294 293 291 290 291 292 293 292 292 290 286 285 285 283 281 280 278 277 276 275 274 272 271 270 269 268 267 266 266 265 264 264 264 263 263 263 263 264 264 263 263 262 261 261 261 261 261 262 262 263 264 265 265 266 267 267 268 269 269 270 271 271
297 298 298 299 299 299 300 301 300 301 300 295 292 292 293 298 302 301 298 296 295 295 294 293 293 292 291 291 291 292 292 290 288 287 285 285 286 283 280 278 277 276 275 273 272 271 269 268 267 267 266 265 265 264 263 263 263 263 263 263 263 263 262 262 261 261 260 260 260 261 262 262 263 264 265 266 266 267 268 268 269 269 270 271 272 273
298 298 297 298 299 298 299 299 299 301 300 294 292 292 294 298 300 297 294 292 294 295 294 292 293 292 290 291 291 290 290 288 286 286 286 286 285 283 279 277 276 275 273 272 271 269 268 267 266 266 265 264 264 263 263 263 262 262 262 262 262 262 261 261 260 260 260 260 261 261 262 263 264 265 266 266 267 267 268 268 269 269 270 271 273 274
300 299 299 299 298 298 299 299 299 299 296 293 293 294 294 296 297 295 294 294 293 293 293 292 292 291 291 292 291 289 289 288 286 286 286 285 284 281 279 277 275 273 272 271 269 268 267 266 265 265 264 263 263 263 262 262 261 261 261 261 261 260 260 260 259 259 259 260 261 262 263 264 264 265 266 266 267 267 267 268 268 269 270 271 272 274
302 301 301 301 299 299 300 300 298 296 294 293 294 295 295 295 296 296 297 295 292 292 293 292 291 290 290 291 291 289 289 288 286 286 286 284 282 280 278 275 273 272 271 269 268 267 266 265 264 264 263 263 262 262 262 261 261 260 260 260 259 259 259 259 258 259 260 261 262 262 263 264 265 265 266 266 266 266 267 267 268 269 269 271 272 274
302 300 302 302 300 299 301 299 297 295 293 293 294 295 295 294 294 296 298 295 292 292 292 292 291 290 290 292 292 290 288 287 286 286 285 283 281 278 276 274 272 271 269 267 266 266 265 264 264 263 262 262 262 262 261 261 260 260 259 259 259 258 258 258 258 259 260 261 262 263 264 265 265 265 265 265 265 266 266 267 267 268 269 271 272 273
301 299 299 301 301 302 303 301 297 295 294 293 293 294 294 293 292 294 296 295 293 292 292 292 291 291 290 291 292 290 288 287 286 285 283 281 279 277 275 273 271 269 267 266 265 265 264 264 263 262 261 261 261 261 260 260 259 259 258 258 258 258 258 258 258 259 260 261 262 263 264 265 265 265 265 265 265 265 265 266 266 267 269 270 271 272
302 299 298 300 301 302 302 300 296 295 294 293 293 293 293 293 292 292 293 294 293 292 291 291 291 291 290 290 290 289 287 286 285 284 281 279 277 275 273 271 269 267 266 265 265 264 264 263 262 261 261 261 261 260 260 259 259 258 258 257 257 257 257 258 258 259 261 262 263 263 264 264 264 264 264 264 264 264 264 265 265 266 268 269 270 272
300 299 299 300 299 300 301 298 295 294 294 293 292 292 292 293 293 292 292 293 292 291 290 290 289 289 290 289 288 288 287 285 284 283 280 277 275 273 271 269 267 266 265 265 264 264 263 262 261 261 260 260 260 259 259 258 258 258 257 257 257 257 257 258 258 260 261 262 263 263 264 264 264 264 264 264 264 264 264 264 265 266 267 268 269 271
299 300 300 299 300 301 301 298 296 296 297 294 292 292 292 292 292 292 292 292 291 290 290 289 287 285 286 286 286 286 286 283 281 280 278 275 273 271 268 267 265 265 265 264 263 263 262 261 261 260 260 260 259 259 258 258 257 257 257 257 257 257 257 257 258 260 261 262 262 263 263 263 263 263 263 263 263 263 263 263 264 265 266 267 268 270
302 303 300 300 303 303 301 298 296 297 299 296 293 292 292 292 292 292 292 291 290 288 288 288 287 286 285 283 282 283 284 281 278 277 276 273 270 268 267 265 265 264 264 263 262 261 261 260 260 259 259 259 258 258 258 257 257 257 256 256 256 257 257 257 258 259 260 261 262 263 263 263 263 263 263 263 263 262 263 263 263 263 265 266 267 268
Wind_Speed
3 4 2 2 4 3 2 3 5 6 4 3 3 3 5 6 6 7 6 5 3 3 6 7 7 7 6 10 10 8 7 8 9 8 8 7 6 6 6 5 5 5 4 2 5 9 14 12 14 17 20 23 24 24 26 27 29 31 30 28 28 31 33 34 34 35 36 37 39 42 43 43 43 40 40 42 43 42 45 47 47 45 42 41 40 40
5 3 4 6 7 6 4 5 4 3 3 2 3 4 5 5 7 8 6 4 2 1 6 5 6 8 6 9 9 8 9 11 11 11 9 8 7 6 6 6 5 4 1 2 2 5 11 12 14 16 19 20 21 24 27 28 30 30 26 25 28 32 34 35 35 35 36 36 38 41 43 44 43 41 40 44 46 47 50 49 46 44 42 41 41 40
5 3 8 7 6 3 3 4 3 3 3 3 3 2 4 4 5 8 5 2 2 1 5 5 7 8 7 9 9 12 12 10 10 11 10 9 8 6 6 6 5 3 1 4 2 2 8 11 13 14 17 19 20 23 25 28 30 27 23 26 31 33 35 36 35 36 36 39 40 40 40 39 40 44 46 49 52 51 50 48 44 43 42 42 42 40
4 5 6 5 5 2 3 2 3 3 3 4 4 2 5 4 2 5 4 2 3 2 4 6 9 8 7 7 7 10 9 6 6 8 8 8 8 8 7 6 5 6 2 3 4 3 6 11 12 13 17 18 19 22 25 29 29 24 25 30 33 34 35 35 37 38 39 41 41 38 38 40 43 48 51 51 50 45 42 42 42 42 42 42 41 40
7 7 3 4 3 3 1 2 2 3 3 5 6 5 6 4 4 6 3 5 5 4 4 6 9 7 7 8 6 5 4 6 7 8 7 7 7 7 6 6 6 6 4 2 4 4 5 9 10 12 15 16 18 21 25 28 26 24 28 33 33 34 34 36 38 39 39 40 40 40 42 45 45 46 46 41 40 41 42 42 43 43 42 42 43 42
7 5 3 4 1 3 2 3 3 5 3 5 5 7 6 4 4 5 4 6 5 5 5 1 5 7 4 8 8 4 5 7 6 8 9 7 7 7 6 6 6 5 4 3 3 2 4 7 8 10 13 15 17 21 25 24 23 25 31 32 32 32 33 37 38 37 37 39 39 39 39 40 38 38 39 37 38 44 47 46 46 46 45 44 43 44
3 2 4 4 3 2 1 4 4 5 3 4 5 4 4 3 2 5 3 3 2 4 3 3 1 7 2 5 9 7 9 10 7 8 9 8 7 7 6 6 6 5 3 1 1 2 4 6 7 9 12 14 18 22 23 22 24 28 31 29 29 32 35 36 36 35 37 38 38 37 37 37 35 33 38 43 44 44 46 47 45 44 44 44 43 44
2 2 4 4 4 1 3 4 4 6 5 4 4 4 3 0 4 5 3 3 4 2 4 2 3 7 7 5 10 11 11 10 9 9 9 8 8 7 7 6 6 6 5 3 1 3 4 6 8 10 12 14 19 22 22 23 27 28 28 27 29 34 36 35 34 36 37 36 36 38 38 38 37 35 40 47 47 44 44 45 42 40 42 43 43 43
2 1 2 3 3 2 5 5 5 7 3 6 5 3 2 4 6 5 4 6 3 3 6 7 5 5 9 4 6 10 10 11 12 13 11 10 9 8 7 6 6 5 4 4 2 3 5 7 9 10 11 15 19 21 22 25 27 27 26 28 32 35 35 34 34 36 37 36 35 35 36 36 38 39 40 44 45 43 41 41 40 40 41 41 41 41
2 3 5 6 4 5 6 5 6 7 3 5 3 2 3 4 6 4 4 5 2 1 9 7 7 5 7 2 5 6 8 12 13 11 11 10 9 8 7 6 6 5 3 2 2 4 6 8 10 11 12 16 19 22 24 26 26 25 27 31 34 35 34 33 34 37 38 37 35 34 35 35 37 39 40 41 43 41 39 38 38 39 40 39 38 39
3 1 2 4 4 5 5 3 3 4 4 1 2 3 4 4 3 1 2 0 3 4 9 7 10 8 6 2 7 7 7 11 11 9 10 10 9 8 7 6 6 5 4 2 2 4 8 11 10 10 14 17 21 24 25 26 25 25 28 32 35 35 34 34 36 38 38 37 34 33 34 35 36 37 38 38 40 39 37 35 35 36 37 37 38 39
4 1 2 1 2 4 5 1 1 1 1 3 3 3 4 5 2 4 3 3 1 6 6 5 8 8 7 5 6 7 6 7 12 13 14 13 10 8 6 6 6 5 4 3 2 5 10 12 9 13 15 17 21 23 25 24 24 26 30 33 35 36 35 35 37 37 38 37 35 34 33 34 34 34 35 36 38 38 36 35 34 34 36 37 38 39
4 5 3 1 1 4 6 1 3 4 4 4 4 4 3 5 4 3 2 1 3 7 4 1 2 5 10 7 6 10 8 7 12 14 15 14 10 8 7 6 5 5 4 3 3 6 8 6 9 13 14 16 19 22 24 24 24 27 31 33 34 36 36 37 38 38 38 38 35 34 33 34 34 34 34 34 35 36 36 35 34 34 35 37 37 37
4 5 2 0 3 3 7 4 2 1 2 4 3 3 2 1 4 5 4 3 5 6 3 1 2 3 7 5 5 10 7 6 9 10 12 12 10 8 7 6 5 5 4 4 6 6 4 6 10 11 13 16 18 22 23 23 25 28 32 34 34 36 37 37 38 38 38 38 37 34 34 34 35 35 33 33 34 36 36 35 35 36 36 36 36 37
2 6 3 4 2 3 6 6 5 4 4 4 4 5 4 3 2 5 4 4 7 6 4 2 1 4 3 4 5 4 5 5 7 9 9 9 8 7 6 6 5 5 5 6 5 3 5 8 10 11 14 17 19 23 23 22 25 29 32 34 34 36 38 38 38 38 39 40 39 36 35 36 35 34 34 33 33 35 36 37 38 37 37 36 37 38
3 6 5 2 1 4 5 4 4 6 2 3 2 4 2 4 4 4 2 3 3 6 5 3 3 5 3 2 4 4 6 7 8 8 9 8 7 7 6 6 6 5 5 3 2 5 6 8 10 11 14 17 20 22 21 22 26 30 33 34 34 36 38 38 37 36 38 40 40 38 37 37 36 35 35 34 35 36 37 38 38 38 38 39 39 38
2 5 2 1 2 3 4 2 2 3 1 1 2 2 5 4 4 2 3 0 2 5 6 3 4 5 1 1 1 4 6 7 7 7 8 8 7 7 6 5 6 5 2 3 4 4 5 8 10 12 14 17 21 21 20 23 28 31 32 33 34 37 39 38 36 37 39 39 39 39 38 37 37 36 36 36 37 38 38 37 37 39 39 39 40 39
2 4 3 3 2 4 2 1 1 1 3 4 3 4 3 1 2 2 1 2 2 4 6 2 6 8 1 2 3 4 6 7 8 7 8 7 7 7 6 6 5 3 2 4 3 4 6 8 10 13 15 18 20 20 21 26 30 31 31 31 32 36 37 37 38 40 41 40 38 38 38 39 39 38 37 38 39 39 38 37 37 39 40 40 40 40
1 3 5 2 2 3 2 3 2 3 2 4 3 2 1 0 2 2 2 2 2 6 7 3 6 8 5 5 5 8 11 11 9 7 8 8 7 7 6 6 4 1 1 2 4 5 5 8 12 14 17 19 18 18 23 28 30 31 31 32 32 34 36 36 38 40 41 40 38 38 39 40 40 40 40 39 39 39 38 39 39 39 40 40 40 40
2 1 4 1 1 2 2 2 2 2 1 3 1 2 1 2 3 2 2 2 2 6 8 5 6 4 5 7 11 14 14 13 11 9 8 8 7 7 6 5 4 3 4 4 4 4 5 9 13 15 17 17 16 19 25 28 29 30 31 33 33 34 37 38 39 38 38 38 39 39 39 40 41 42 41 40 39 39 39 40 40 39 39 39 40 40
2 2 3 2 2 1 2 4 6 7 4 3 2 2 2 2 1 1 2 3 3 6 6 6 10 5 3 4 10 14 13 13 12 9 8 7 7 7 6 6 5 5 5 4 4 5 6 9 13 16 15 15 16 22 26 26 27 29 30 32 33 34 36 38 39 38 38 39 39 39 39 41 43 43 42 40 38 39 40 39 39 38 39 39 39 39
2 3 3 2 1 3 6 6 7 8 7 6 6 6 6 5 2 3 5 2 3 6 4 5 13 9 2 3 6 9 10 11 11 9 8 8 9 8 7 7 6 5 4 4 5 5 6 9 13 14 13 14 18 23 25 25 26 28 29 32 33 33 34 36 38 39 39 39 39 39 40 41 43 43 43 41 38 37 37 37 38 38 38 39 39 38
3 2 3 5 6 6 6 3 2 4 4 3 4 5 6 5 5 6 7 3 3 4 2 4 13 9 2 5 6 7 9 9 9 9 8 7 8 8 7 7 6 4 4 5 5 4 7 10 11 12 12 16 20 22 24 25 26 27 29 32 33 34 35 35 37 38 38 39 39 39 40 40 43 44 43 39 36 35 36 36 38 39 37 37 38 38
1 2 3 6 6 4 2 2 4 3 3 1 4 5 6 7 8 8 6 1 1 5 3 4 11 8 1 2 5 6 7 8 8 8 8 8 7 6 7 6 5 4 4 5 4 5 7 8 9 10 12 16 20 22 23 24 26 28 29 32 33 35 36 36 36 38 38 39 39 40 39 40 43 44 41 37 34 34 36 37 38 38 37 36 36 37
3 2 3 2 6 6 3 2 3 1 2 3 5 5 8 10 7 3 2 1 4 11 10 7 12 9 2 0 3 7 7 7 7 7 8 8 6 6 6 5 5 4 4 5 5 5 5 5 7 9 12 16 19 22 23 24 26 28 30 32 33 34 37 37 37 38 38 38 40 41 40 40 42 42 39 37 34 34 35 36 36 36 36 36 36 38
4 3 4 4 6 9 9 7 4 2 3 3 3 6 10 11 10 5 3 4 8 13 11 10 13 11 3 2 2 5 7 7 6 6 6 6 6 6 6 5 5 5 5 4 4 4 4 5 6 9 12 16 19 21 23 26 27 29 31 33 33 34 37 38 38 38 38 38 40 40 40 41 41 40 38 37 35 35 35 35 34 35 36 36 36 38
2 2 6 9 10 12 14 11 1 4 3 5 5 9 11 11 14 11 6 8 8 5 9 15 15 15 13 7 6 6 7 7 6 6 6 6 6 7 6 6 5 4 3 3 4 4 5 6 7 10 13 16 20 21 23 26 28 29 31 33 35 36 37 38 38 38 38 38 39 39 40 40 40 40 39 37 35 35 34 32 33 33 34 34 34 34
3 4 9 13 16 19 20 14 2 4 7 12 10 10 11 11 15 15 14 15 7 1 14 21 12 14 20 13 10 11 9 8 7 7 8 7 7 6 5 4 1 1 2 3 4 5 7 8 8 11 15 17 19 22 23 25 27 28 29 32 35 36 36 37 38 38 39 38 38 39 40 40 41 41 40 38 36 35 33 32 33 33 33 34 34 34
4 7 11 11 16 21 19 13 7 6 10 14 15 12 11 14 18 20 21 21 12 9 20 22 12 17 20 11 11 12 8 8 7 7 7 7 7 6 4 3 2 3 3 4 5 6 7 9 9 11 15 18 20 22 25 26 27 29 31 32 34 35 36 37 38 38 39 38 37 38 39 40 41 42 42 40 37 35 35 34 34 33 34 36 37 37
3 6 9 8 12 19 17 10 9 10 12 18 20 15 14 19 21 20 20 21 18 20 25 23 22 27 22 12 13 11 6 7 5 6 6 7 7 5 5 3 0 2 2 3 5 6 7 8 9 11 15 18 20 23 25 26 28 31 32 33 34 36 37 37 38 39 38 38 39 39 39 41 42 42 41 40 38 37 37 36 36 35 36 38 40 41
4 3 2 3 6 15 14 8 8 10 12 20 22 16 16 20 21 20 20 19 18 21 26 24 23 26 21 13 12 10 6 6 5 6 7 7 6 5 5 3 2 1 2 4 5 6 7 7 9 11 14 17 20 23 24 26 29 31 32 33 34 36 38 38 37 38 37 38 40 41 40 42 42 41 39 39 39 39 39 37 37 38 37 38 40 40
5 3 2 4 4 11 7 3 6 6 8 19 26 20 19 20 20 18 18 18 18 19 22 21 17 19 17 7 4 5 7 7 7 8 7 6 6 6 5 3 2 2 3 5 5 6 7 8 9 10 13 17 21 23 24 27 30 30 30 33 35 37 39 38 36 37 38 39 41 41 40 40 40 41 40 41 41 41 39 38 39 38 36 36 36 35
5 4 2 4 4 6 1 4 2 2 5 16 19 16 20 23 22 19 17 20 20 16 15 15 16 17 11 2 5 6 6 7 8 7 7 6 6 6 5 4 4 3 2 3 5 6 6 8 9 11 15 19 21 24 26 27 28 29 31 33 36 38 39 39 37 37 38 39 40 41 39 38 38 41 41 42 43 42 40 39 36 33 32 33 33 33
6 7 4 4 3 2 1 4 4 0 9 12 5 6 16 22 22 21 22 24 21 16 15 17 17 15 9 5 7 7 6 7 6 6 7 6 6 5 5 5 5 3 2 3 4 5 6 8 11 14 16 20 23 25 27 27 26 29 31 33 35 36 36 37 38 37 38 40 40 39 38 37 38 40 41 42 43 42 39 37 33 31 31 32 31 31
9 7 4 3 2 2 2 4 2 7 11 6 2 3 9 14 16 19 23 26 22 17 18 21 21 18 15 10 6 6 6 6 6 6 7 6 6 6 6 5 5 4 2 2 4 4 6 9 13 16 17 20 23 25 26 27 27 30 32 33 34 34 34 36 37 37 38 39 39 38 37 38 38 38 39 41 42 38 36 34 32 32 32 32 31 30
10 7 4 3 2 1 2 3 7 8 12 11 6 5 5 5 7 10 16 22 18 15 16 19 21 20 16 8 3 7 7 7 6 4 4 6 7 7 7 6 5 4 2 2 3 5 8 11 13 15 18 21 24 25 26 27 29 32 33 33 32 33 34 35 35 37 37 37 38 38 37 37 38 37 37 39 39 37 36 36 34 34 33 32 31 31
9 7 4 4 4 3 4 6 7 8 17 21 12 5 7 6 8 8 10 15 11 14 16 18 18 17 10 4 6 8 7 6 4 0 1 5 7 8 7 6 6 6 5 2 3 6 10 12 13 16 20 23 25 25 26 28 31 32 33 33 32 33 34 34 34 35 36 36 36 37 37 37 37 37 38 38 38 38 38 36 33 32 31 30 30 31
7 6 6 6 5 3 4 6 5 6 12 12 5 3 6 6 7 8 5 9 7 14 16 16 15 12 5 8 9 8 6 5 3 3 3 5 6 7 7 6 8 8 6 2 4 8 10 13 15 18 22 23 23 24 26 29 31 31 31 31 32 32 32 32 33 35 35 35 36 37 39 38 37 39 39 39 40 39 38 38 38 36 34 31 29 30
5 2 3 4 5 4 5 6 5 8 11 4 2 2 4 7 8 7 2 8 6 10 12 11 11 8 9 11 9 8 6 5 6 4 6 7 6 7 6 6 7 8 6 3 4 6 10 13 17 21 23 22 22 24 26 28 28 28 28 29 31 31 30 32 34 35 35 36 37 38 38 38 39 40 39 40 42 43 44 49 50 45 39 34 30 30
5 2 2 5 8 7 7 6 5 8 9 3 5 3 5 8 9 7 3 9 5 5 7 9 9 7 10 11 9 8 7 7 6 5 8 8 6 6 7 6 6 6 4 3 4 6 9 13 16 20 22 22 22 24 26 26 26 25 26 28 29 29 30 32 34 34 35 36 37 38 39 40 41 43 43 44 47 49 50 51 48 43 42 39 34 33
2 3 4 7 9 8 9 7 5 8 7 5 8 7 8 8 6 2 7 7 4 5 6 8 8 8 11 11 8 7 5 4 5 7 9 8 6 6 7 8 8 6 4 4 5 8 10 12 13 16 18 20 23 25 26 25 25 25 26 27 27 28 31 33 33 33 35 36 37 39 41 42 42 43 44 45 46 49 49 47 43 41 41 40 37 34
3 3 4 6 6 6 7 5 4 9 6 10 12 11 10 6 2 6 5 2 6 7 7 7 8 9 11 11 8 6 4 5 8 9 8 8 7 6 7 8 8 6 4 4 6 8 11 12 13 15 18 20 22 24 25 25 24 25 26 27 28 30 32 32 32 34 36 38 39 41 43 43 42 42 41 40 42 44 42 40 39 37 34 32 31 31
7 5 4 7 5 3 3 3 3 8 6 16 17 9 8 7 5 4 4 2 4 7 7 7 7 8 10 9 6 7 8 8 8 8 7 6 6 7 6 7 7 6 5 5 6 8 10 12 13 15 18 19 20 22 23 23 24 24 25 27 29 32 32 31 33 36 38 39 40 41 42 42 42 41 38 38 39 38 36 35 34 32 29 28 27 26
8 8 5 6 6 5 6 9 7 4 7 19 17 9 11 11 4 6 7 3 2 5 6 6 6 8 10 10 8 8 10 9 8 8 7 6 6 6 5 6 7 6 6 5 5 8 9 10 12 16 18 18 18 20 21 22 23 24 25 27 31 32 32 33 35 37 37 38 39 40 42 42 41 38 36 37 38 35 34 34 32 29 28 27 25 23
11 10 4 4 7 7 6 8 5 3 8 15 11 5 9 10 5 6 9 6 4 5 5 6 7 8 9 10 9 8 8 9 9 8 7 6 6 6 5 6 7 6 5 4 5 7 9 10 12 15 17 17 18 19 20 22 24 24 26 29 32 32 33 36 37 36 36 38 38 39 41 41 39 37 35 36 36 34 33 32 29 28 28 26 24 22
7 6 2 1 5 5 8 8 5 4 7 14 11 3 5 7 6 6 7 6 6 6 5 6 8 9 8 9 9 8 7 9 9 8 7 7 6 6 6 6 7 6 4 4 6 7 9 12 13 14 16 18 18 19 21 23 23 24 28 31 32 32 34 36 36 35 36 37 37 38 38 38 38 38 36 36 35 32 30 30 29 28 27 24 23 22
4 6 4 4 4 3 7 9 11 10 11 14 13 6 4 5 6 6 6 6 6 7 7 8 8 9 8 9 10 9 8 9 9 7 6 7 7 6 6 6 6 5 3 4 5 8 10 13 14 14 16 17 18 19 22 24 24 25 28 30 31 33 34 34 33 34 35 35 36 36 35 35 36 37 36 36 36 32 30 30 30 27 25 25 24 23
4 9 8 10 10 8 7 5 7 9 11 12 11 8 6 6 7 6 5 5 6 6 6 6 7 8 8 8 9 10 8 8 9 8 7 6 6 6 5 6 7 6 3 3 5 8 11 12 13 14 15 16 18 20 23 25 26 27 28 30 31 32 33 33 32 31 32 34 34 34 33 32 34 35 35 35 34 31 29 30 31 29 26 25 25 24
7 9 8 9 11 11 11 4 6 4 6 9 11 10 9 8 8 6 5 6 7 7 6 5 5 6 8 8 9 9 9 8 8 9 8 7 6 6 6 8 9 7 4 4 5 8 10 11 13 14 15 16 18 21 23 24 26 28 29 30 31 32 31 32 31 30 30 32 33 33 32 31 32 34 34 34 34 32 29 28 29 28 28 29 29 27
9 10 7 6 9 13 14 11 11 7 6 9 12 14 12 9 8 8 7 7 8 9 9 8 4 3 5 7 8 10 10 8 7 8 8 7 7 7 9 10 10 7 5 4 5 7 10 11 11 13 15 17 19 22 24 24 26 27 29 30 31 31 31 31 30 28 29 31 32 32 31 31 32 33 33 33 34 34 33 34 34 29 26 30 33 33
13 14 12 12 12 12 10 12 14 10 6 5 10 14 12 9 9 10 10 10 10 10 11 11 9 5 4 5 6 9 10 9 9 9 8 7 8 10 11 11 10 9 7 5 6 8 10 10 11 13 15 17 20 22 23 24 25 27 29 30 31 31 30 29 28 26 27 29 31 31 30 29 30 31 31 31 32 32 31 35 41 41 37 34 34 36
Wind_Direction
83 57 345 271 233 211 209 204 204 218 214 227 246 245 246 256 273 270 270 260 165 163 249 232 233 250 209 195 201 183 159 159 162 161 165 163 158 160 163 180 186 192 220 162 103 47 30 23 17 17 16 10 4 360 354 351 349 345 342 342 343 343 341 337 333 331 330 331 329 327 323 318 314 313 314 313 313 312 310 307 301 294 290 290 290 289
59 35 271 222 203 202 217 236 225 230 254 258 249 268 274 256 259 270 265 240 143 173 264 252 246 255 234 212 201 173 167 179 176 169 172 165 161 168 166 183 199 196 265 26 91 34 23 16 13 15 12 5 0 358 355 351 345 340 340 344 342 340 339 336 331 328 327 328 327 324 319 315 313 313 315 314 312 311 308 305 301 296 292 291 291 288
12 293 256 219 195 212 251 240 211 227 245 252 259 281 281 263 264 286 283 185 109 295 270 279 270 256 246 236 204 182 184 188 183 172 168 162 159 171 172 186 198 169 18 348 302 344 15 8 7 8 3 359 355 353 352 349 344 340 342 344 341 340 338 335 331 329 327 326 326 324 319 317 317 316 315 312 309 308 305 302 299 297 295 293 290 286
317 262 239 200 169 181 291 269 184 231 261 243 247 253 265 270 267 284 304 332 314 265 246 272 277 256 239 243 207 192 186 163 170 167 160 162 161 174 182 178 169 160 172 308 280 290 3 1 360 1 355 351 349 347 349 347 343 342 344 344 342 339 337 334 332 330 328 327 327 326 322 321 318 314 313 311 310 310 309 306 302 299 297 294 290 287
266 259 192 136 139 155 235 315 165 202 272 258 225 217 244 253 231 239 281 331 321 303 280 284 291 269 215 211 200 185 159 145 161 156 156 174 172 173 173 166 166 165 172 234 262 287 349 353 350 353 347 343 343 344 348 347 344 346 346 343 339 337 335 333 331 330 329 329 328 327 324 322 320 316 315 314 314 316 315 311 307 303 301 297 292 289
264 267 115 116 96 112 171 267 215 186 240 286 241 217 218 204 235 268 332 359 340 309 297 308 299 284 211 188 191 165 156 170 172 164 166 178 182 174 162 170 179 170 177 205 224 273 332 339 341 343 339 338 342 346 350 348 347 346 343 338 335 333 331 330 330 330 331 329 327 327 325 323 321 317 315 314 314 314 313 310 306 304 303 301 295 289
260 338 72 117 132 101 225 258 236 181 168 286 252 187 161 141 273 289 330 3 283 264 281 100 228 277 273 174 187 176 177 187 185 179 181 183 187 181 172 177 173 168 183 211 234 281 319 328 327 324 330 339 346 350 351 348 345 342 338 335 333 329 329 329 329 330 331 329 327 325 323 320 316 312 310 310 309 309 309 309 306 303 301 301 299 292
195 45 49 92 115 170 254 263 232 160 141 252 239 134 117 135 274 268 246 240 241 277 294 243 204 267 279 228 188 174 180 198 197 193 193 192 192 182 177 174 160 171 180 169 247 301 309 310 306 307 324 345 353 352 348 343 340 337 336 333 331 328 327 328 329 330 331 329 326 324 322 318 315 312 309 308 308 306 307 308 308 307 304 302 301 298
203 174 208 152 120 229 235 231 194 143 146 248 213 162 204 229 242 246 234 249 271 13 285 239 173 245 272 245 167 166 185 209 207 200 195 190 190 177 172 172 161 168 177 168 202 279 289 296 296 302 328 352 357 351 343 339 336 334 333 331 329 328 327 327 328 329 329 327 324 321 319 316 314 313 311 309 307 305 306 307 308 309 307 305 303 300
259 200 191 154 162 232 226 217 177 148 204 243 197 225 273 250 244 230 226 259 16 2 261 232 165 217 266 214 142 165 206 220 210 197 191 190 185 173 167 168 162 163 184 201 226 253 282 292 291 307 345 359 355 347 340 336 333 331 331 330 328 327 326 326 327 328 328 325 322 319 317 315 314 314 313 311 309 306 306 306 307 309 307 305 304 302
296 239 168 146 190 203 178 192 179 163 204 217 51 344 326 291 268 142 200 44 55 263 258 221 182 202 270 237 161 180 217 212 194 177 184 190 177 170 167 160 160 167 188 230 256 261 276 277 289 332 2 1 349 343 338 333 330 329 330 329 327 325 325 325 326 326 325 323 321 318 317 316 314 315 315 313 310 308 307 307 308 309 308 305 304 304
332 303 241 217 196 132 112 135 315 21 51 70 64 28 344 311 353 39 7 55 105 256 262 228 198 198 240 244 187 213 238 189 176 175 180 183 170 165 165 160 166 171 182 212 241 257 261 266 311 1 5 355 345 339 335 330 328 329 329 328 326 323 324 324 325 324 323 321 320 318 317 316 315 315 315 313 310 309 309 309 309 308 308 307 304 303
304 248 248 328 285 133 114 68 332 359 44 80 81 63 4 320 349 355 314 149 217 249 249 181 166 213 241 249 207 223 238 191 177 176 173 168 160 164 167 164 168 165 173 195 224 247 252 278 349 5 356 346 340 334 330 326 326 328 327 327 324 321 322 324 324 323 322 321 320 319 318 316 316 315 314 312 309 308 308 307 309 309 307 305 304 301
301 297 288 331 292 170 142 153 240 276 127 138 134 124 156 303 327 299 276 268 273 270 249 133 47 275 263 278 231 213 212 180 161 154 155 152 152 163 166 160 164 168 182 203 225 248 282 346 356 352 343 338 333 329 326 323 325 326 325 325 323 320 321 323 322 322 322 321 320 318 317 316 316 315 313 312 309 307 306 305 305 307 304 301 301 300
242 300 251 185 236 171 169 187 175 149 154 188 166 139 163 170 235 272 269 270 288 290 257 233 300 241 224 299 282 193 136 116 122 128 133 141 151 156 153 153 165 181 201 220 239 291 348 350 341 336 333 332 329 327 323 322 325 325 323 323 321 319 320 321 321 322 322 321 319 317 317 317 316 314 312 309 308 306 304 304 303 302 302 298 297 298
199 257 244 219 229 152 183 220 147 115 120 238 134 111 191 186 193 252 232 201 291 309 273 216 226 227 193 334 348 96 113 110 119 130 133 147 156 146 150 163 175 194 212 239 326 2 350 329 322 323 326 328 328 324 320 321 325 323 321 320 319 318 319 319 319 321 322 321 318 317 317 317 316 313 311 308 306 305 303 302 301 299 299 298 296 296
244 269 259 21 327 177 187 220 158 126 154 202 133 178 227 186 152 242 275 129 56 302 273 215 246 271 351 331 335 114 126 132 143 149 146 160 160 147 162 178 183 195 222 357 9 352 309 299 305 314 324 328 326 321 319 321 322 320 318 318 317 317 318 318 318 320 322 320 317 316 317 317 316 314 311 309 305 305 304 300 299 299 298 296 295 295
224 273 239 150 228 239 202 142 325 349 123 146 189 225 224 122 106 130 274 330 58 264 265 200 243 260 204 216 230 158 163 174 181 172 159 167 162 159 178 182 181 178 31 1 336 283 269 283 304 317 325 326 323 320 319 320 320 318 316 316 317 317 317 317 318 320 321 320 317 316 317 317 316 314 311 309 306 304 303 300 299 299 298 296 296 295
124 277 270 156 195 263 30 52 324 325 92 139 207 243 106 172 253 148 156 255 233 264 270 230 247 249 203 194 199 190 195 193 189 181 173 178 172 170 181 180 181 164 14 283 268 261 269 294 310 319 322 322 323 320 319 319 319 317 316 317 317 316 316 315 317 319 319 319 317 315 315 315 314 314 311 308 306 304 301 300 300 299 298 297 296 296
113 225 276 315 227 274 33 80 214 238 55 79 32 327 33 198 221 181 163 186 205 264 275 287 293 263 199 188 183 193 200 188 183 186 183 185 180 175 177 178 185 195 213 238 257 266 281 294 306 318 321 320 321 321 321 320 318 317 317 318 318 317 317 316 317 318 317 317 316 313 313 314 313 313 311 308 306 303 300 300 300 298 298 298 297 297
101 200 247 314 337 258 194 198 193 189 177 141 160 232 229 205 215 263 231 153 192 251 265 287 285 258 188 184 179 187 196 183 177 181 183 185 180 176 176 176 183 193 208 240 260 263 277 289 307 321 321 317 321 322 321 319 317 318 318 318 318 317 317 317 317 318 317 317 316 314 312 313 314 313 311 308 304 302 300 299 298 297 298 298 297 297
161 194 224 254 260 223 227 224 199 190 183 176 187 195 200 202 185 265 261 187 194 240 219 248 270 263 194 174 174 173 179 175 173 175 179 181 175 176 181 174 175 185 199 236 254 263 281 293 309 319 317 318 323 322 321 320 319 319 319 319 318 317 316 317 317 317 318 318 316 313 313 312 313 313 311 308 305 302 301 300 299 298 299 298 297 297
154 143 228 250 247 235 240 244 178 173 165 182 211 193 184 190 181 214 244 224 200 242 194 234 266 273 160 147 156 159 164 166 174 176 171 177 178 174 177 171 168 179 204 239 260 273 282 292 309 318 319 322 324 323 322 322 321 320 319 319 318 318 317 317 317 317 318 317 315 313 313 313 314 313 311 308 305 304 303 301 301 299 298 297 296 297
137 131 224 264 282 264 248 20 36 58 83 225 238 188 183 211 208 216 235 202 196 235 205 231 260 265 252 148 148 149 160 165 177 179 164 170 181 169 164 168 173 191 229 258 267 267 276 297 322 326 324 325 325 325 323 322 322 320 319 320 320 319 318 319 319 319 319 318 316 315 315 315 315 313 310 308 306 306 305 302 300 299 298 296 296 296
192 179 181 277 308 294 283 355 351 336 155 227 232 188 205 222 217 249 281 146 245 243 222 231 257 252 227 114 146 142 156 173 183 180 162 161 169 165 163 171 183 204 237 253 259 268 288 324 336 325 324 327 325 324 324 323 322 321 321 322 321 320 320 321 322 321 320 319 317 317 316 316 316 313 310 309 308 307 307 303 300 299 298 297 296 295
188 187 170 203 268 275 275 283 283 220 185 219 221 199 211 212 197 211 236 202 237 247 228 225 249 254 224 147 206 181 177 189 187 163 155 158 164 167 170 180 192 209 233 255 277 300 328 339 326 320 325 327 326 325 324 323 322 323 322 321 322 322 322 323 323 322 321 320 318 316 316 316 317 314 310 309 309 308 308 304 300 299 299 298 297 295
135 228 210 213 230 244 258 266 234 125 201 243 227 208 208 205 204 210 219 221 227 254 253 240 241 258 259 230 216 215 196 201 196 166 164 169 170 172 174 181 190 202 236 287 312 331 345 335 319 325 329 328 326 324 323 322 322 323 322 322 323 324 324 323 323 322 320 319 317 315 314 315 314 311 310 309 309 308 306 305 302 299 298 298 297 296
109 247 228 219 232 242 254 263 205 144 242 258 252 230 213 207 212 214 220 230 218 128 261 252 233 247 256 242 222 226 219 220 208 177 178 178 171 174 170 165 159 4 330 327 342 350 346 334 325 330 330 328 326 322 323 323 322 322 323 323 324 324 324 324 323 321 320 318 316 313 312 313 312 311 310 308 308 307 305 305 304 300 297 296 295 294
140 247 236 220 240 250 256 266 261 245 256 260 256 243 226 219 219 221 228 234 225 218 251 262 258 251 254 245 235 233 220 223 215 180 179 171 155 156 137 102 40 352 323 332 356 355 342 331 328 329 327 326 326 325 326 325 325 326 325 324 325 324 324 324 323 321 319 316 313 311 311 311 311 311 310 307 306 307 305 304 303 300 297 294 292 291
153 251 243 223 249 259 258 258 258 256 260 262 257 241 232 234 229 229 235 237 234 238 252 265 268 265 262 251 251 250 208 197 192 163 163 152 146 146 121 104 200 276 303 355 2 345 336 327 322 322 324 326 327 326 327 327 328 328 326 325 326 324 325 325 322 320 318 314 311 311 311 311 310 310 310 308 306 306 306 304 303 300 297 294 292 290
208 239 223 175 252 267 262 243 237 244 251 261 261 241 231 242 243 238 239 238 237 243 251 257 262 266 267 258 257 256 212 175 157 162 168 154 149 140 124 150 224 238 12 13 356 335 329 322 319 323 324 325 325 326 328 329 328 326 325 325 326 324 324 324 321 318 315 313 313 312 312 312 312 310 310 310 309 308 307 305 303 301 298 294 292 290
210 224 75 103 234 265 263 205 231 256 266 267 265 248 229 236 241 237 234 232 229 234 248 255 255 260 266 260 228 216 191 177 176 176 165 151 151 140 142 188 199 87 46 3 343 328 323 319 321 324 322 322 326 328 330 330 327 326 326 326 325 324 323 322 320 318 314 314 314 314 312 312 313 312 311 311 311 310 308 306 304 301 298 294 293 291
178 196 151 136 218 270 328 112 131 37 304 272 263 235 217 225 235 239 242 239 229 224 239 246 242 252 267 229 171 192 181 179 190 179 158 157 162 155 162 171 139 102 61 1 329 317 319 317 316 317 320 326 328 329 329 329 326 325 325 325 323 323 323 321 319 317 314 314 314 313 313 313 314 313 311 311 312 311 309 307 303 299 296 294 292 290
185 194 189 172 195 247 143 104 90 337 266 268 270 184 201 214 224 231 240 241 230 219 228 242 250 260 264 218 196 198 187 181 177 162 155 156 159 161 162 147 127 107 41 355 318 311 312 309 312 319 326 329 328 326 327 327 326 324 323 323 323 322 322 320 318 316 315 314 314 313 314 315 314 313 312 311 312 311 308 306 302 297 295 293 290 287
185 191 194 181 172 188 139 88 122 239 251 253 108 155 202 209 213 223 239 245 236 225 232 243 253 256 251 244 215 176 173 162 139 143 156 160 160 153 143 136 123 102 47 332 304 304 308 314 322 328 330 328 326 326 327 328 329 327 324 325 323 322 322 319 317 315 314 314 315 316 317 317 315 313 312 311 311 309 306 305 302 297 294 292 289 286
177 183 186 166 163 174 135 171 214 257 299 294 252 178 161 195 202 216 252 254 234 219 230 238 245 250 249 248 174 142 150 133 119 143 171 162 155 140 136 144 133 125 150 231 275 299 317 324 327 328 327 326 327 329 331 332 331 328 325 325 324 322 322 319 316 316 317 317 318 318 318 318 315 312 311 310 309 305 302 301 299 297 293 289 286 283
176 177 177 180 203 190 175 216 241 308 312 293 269 180 159 191 179 178 254 263 215 197 220 230 237 245 240 180 133 135 133 119 111 254 173 145 142 135 136 138 132 141 161 183 295 313 322 326 326 328 328 328 330 333 334 332 332 329 325 325 326 324 322 320 318 319 318 316 315 316 317 317 315 312 310 308 307 305 303 299 296 295 291 285 282 280
186 185 176 189 213 181 180 236 265 284 276 272 267 196 188 185 150 142 250 275 199 186 210 223 228 230 188 136 145 143 127 136 184 214 185 167 152 134 125 123 130 140 139 105 337 329 330 329 331 332 331 330 332 335 335 333 332 329 325 325 325 324 321 320 319 319 317 315 315 316 316 315 313 310 307 305 303 301 301 302 301 298 291 282 276 276
189 202 170 199 220 185 194 225 229 242 252 239 150 214 169 136 118 99 346 283 223 189 201 210 217 205 155 149 160 148 139 186 221 210 182 179 163 133 126 129 130 126 112 69 3 346 337 335 335 332 332 335 334 334 335 333 331 329 325 324 325 322 320 320 319 319 317 315 315 315 313 312 310 308 303 300 300 299 302 307 308 304 297 285 273 272
183 181 161 214 224 203 205 225 230 246 254 179 137 173 145 129 111 86 313 274 239 187 188 189 198 185 154 156 162 157 173 206 219 191 170 165 151 135 138 138 128 117 95 53 19 359 344 341 338 332 332 334 333 333 335 334 332 329 325 324 323 320 319 319 318 317 316 314 313 313 313 313 312 311 307 303 304 305 307 309 306 301 299 294 284 278
191 191 190 219 228 213 212 227 249 263 251 163 151 164 145 117 94 134 242 240 178 168 181 176 181 171 154 159 170 179 197 193 149 146 151 149 139 134 129 120 114 107 82 44 14 358 349 345 338 329 327 330 333 336 337 336 334 330 326 325 322 319 320 320 317 316 316 315 314 315 317 317 316 315 312 310 310 310 310 310 307 303 301 299 293 287
172 179 210 222 222 217 221 227 266 277 247 153 153 164 146 131 225 230 217 146 138 167 178 173 173 162 158 170 176 168 152 125 125 135 145 149 142 135 127 117 113 105 77 40 12 0 350 341 336 329 330 335 337 338 339 338 334 330 327 325 322 321 322 321 319 318 317 318 319 319 321 322 321 319 317 316 318 316 313 313 312 309 304 301 297 292
162 158 203 213 194 177 208 198 244 271 215 146 143 159 173 188 219 185 135 107 158 163 161 169 172 160 163 172 166 145 137 133 134 139 146 149 135 127 128 120 112 102 77 43 13 1 350 340 335 330 331 336 339 340 342 339 333 330 326 323 322 323 323 322 322 321 321 322 323 324 325 326 326 324 323 324 324 321 317 315 314 311 310 308 305 300
170 172 193 205 175 148 184 202 209 243 168 150 150 174 196 196 173 128 143 165 190 169 160 165 173 171 168 165 157 148 143 143 152 151 147 147 137 127 122 111 103 95 79 50 10 356 349 339 333 329 331 337 340 342 344 341 334 329 325 324 326 326 325 325 326 325 325 326 327 328 330 330 330 329 329 330 329 325 322 320 318 316 315 313 311 309
198 188 175 186 184 180 207 218 201 123 157 173 180 190 186 179 150 139 154 156 175 197 180 161 174 181 171 158 152 153 154 156 163 159 151 151 143 128 118 109 102 93 76 43 3 354 349 340 336 333 332 336 343 345 346 343 338 330 325 328 330 329 327 328 329 329 330 331 332 334 335 334 334 335 335 335 334 331 326 324 323 322 319 317 318 320
211 184 122 135 194 230 271 249 198 146 175 192 200 193 159 171 167 152 153 158 177 186 170 166 177 177 169 156 148 158 171 164 160 159 151 145 139 126 119 113 105 96 73 27 0 353 349 345 343 339 333 336 346 349 346 344 340 332 328 330 332 332 331 331 332 333 334 335 336 338 339 338 338 339 341 342 341 336 329 327 326 324 323 325 331 333
213 170 177 204 172 184 254 230 192 185 191 193 200 200 163 178 188 170 161 172 177 176 177 180 174 163 160 157 155 168 177 162 156 159 149 139 140 135 127 121 116 107 74 30 7 356 355 353 347 339 334 337 345 348 345 343 341 336 332 332 334 335 335 336 336 336 337 338 339 340 342 342 340 341 343 346 344 339 333 331 330 328 329 333 338 338
179 151 179 218 207 201 235 222 169 186 195 190 198 204 184 188 197 183 169 164 157 160 167 164 158 156 157 162 163 165 168 163 161 159 152 147 146 140 136 135 130 123 91 47 22 5 3 359 346 337 335 338 344 347 345 343 343 341 338 337 337 339 338 339 340 340 340 342 343 343 344 344 342 343 345 346 344 339 335 336 335 333 334 336 338 338
135 152 178 202 207 227 251 228 129 154 215 208 204 204 197 193 187 168 154 144 139 143 141 133 146 160 160 165 164 155 160 173 167 155 153 151 145 143 143 135 129 124 103 64 34 16 12 1 345 338 338 340 344 347 346 345 345 344 343 342 342 343 343 342 342 344 346 347 347 347 347 347 347 347 346 346 345 340 337 340 340 336 337 340 342 343
149 187 184 158 192 229 236 202 160 166 222 211 198 201 202 190 164 146 144 148 151 156 151 137 120 116 144 160 161 156 163 172 161 151 153 151 149 150 143 133 128 123 108 79 40 23 17 5 349 343 343 344 348 349 347 346 347 347 347 347 347 347 347 345 344 347 350 351 351 350 348 348 351 350 347 348 346 340 339 344 348 349 347 344 345 351
190 201 185 180 208 228 216 185 176 192 223 192 180 195 200 179 155 155 163 167 167 166 160 151 145 144 154 164 164 161 162 164 158 152 146 139 140 139 135 134 132 123 110 84 48 30 18 6 356 350 348 348 350 350 349 348 349 349 350 351 351 351 351 350 348 348 350 352 353 351 349 349 349 346 345 347 346 342 340 343 347 352 356 355 353 356